Time,TemperatureF,DewpointF,PressureIn,WindDirection,WindDirectionDegrees,WindSpeedMPH,WindSpeedGustMPH,Humidity,HourlyPrecipIn,Conditions,Clouds,dailyrainin,SoftwareType,DateUTC
2013-06-02 00:22:00,63.0,57.0,29.86,WSW,247,2.0,6.0,81,0.00,,,0.32,,2013-06-02 05:22:00,
2013-06-02 00:32:00,63.0,57.0,29.86,WSW,247,2.0,6.0,81,0.00,,,0.32,,2013-06-02 05:32:00,
2013-06-02 00:42:00,63.0,57.0,29.86,WSW,247,2.0,6.0,81,0.00,,,0.32,,2013-06-02 05:42:00,
2013-06-02 00:52:00,63.0,57.0,29.86,WSW,247,2.0,6.0,81,0.00,,,0.32,,2013-06-02 05:52:00,
2013-06-02 01:01:00,63.0,57.0,29.86,WSW,247,2.0,6.0,81,0.00,,,0.32,,2013-06-02 06:01:00,
2013-06-02 01:12:00,62.0,57.0,29.85,WSW,245,1.0,6.0,84,0.00,,,0.27,,2013-06-02 06:12:00,
2013-06-02 01:21:00,62.0,57.0,29.85,WSW,245,1.0,6.0,84,0.00,,,0.27,,2013-06-02 06:21:00,
2013-06-02 01:32:00,62.0,57.0,29.85,WSW,245,1.0,6.0,84,0.00,,,0.27,,2013-06-02 06:32:00,
2013-06-02 01:42:00,62.0,57.0,29.85,WSW,245,1.0,6.0,84,0.00,,,0.27,,2013-06-02 06:42:00,
2013-06-02 01:52:00,62.0,57.0,29.85,WSW,245,1.0,6.0,84,0.00,,,0.27,,2013-06-02 06:52:00,
2013-06-02 02:01:00,62.0,57.0,29.85,WSW,245,1.0,6.0,84,0.00,,,0.27,,2013-06-02 07:01:00,
2013-06-02 02:42:00,61.0,57.0,29.85,WSW,256,3.0,7.0,86,0.00,,,0.11,,2013-06-02 07:42:00,
2013-06-02 02:52:00,61.0,57.0,29.85,WSW,256,3.0,7.0,86,0.00,,,0.11,,2013-06-02 07:52:00,
2013-06-02 03:02:00,61.0,57.0,29.85,WSW,256,3.0,7.0,86,0.00,,,0.11,,2013-06-02 08:02:00,
2013-06-02 03:12:00,61.0,57.0,29.85,WSW,256,3.0,7.0,86,0.00,,,0.11,,2013-06-02 08:12:00,
2013-06-02 03:21:00,60.0,56.0,29.86,West,276,1.0,5.0,87,0.00,,,0.05,,2013-06-02 08:21:00,
2013-06-02 03:31:00,60.0,56.0,29.86,West,276,1.0,5.0,87,0.00,,,0.05,,2013-06-02 08:31:00,
2013-06-02 03:42:00,60.0,56.0,29.87,WSW,254,1.0,7.0,88,0.00,,,0.05,,2013-06-02 08:42:00,
2013-06-02 03:52:00,60.0,56.0,29.87,WSW,254,1.0,7.0,88,0.00,,,0.05,,2013-06-02 08:52:00,
2013-06-02 04:01:00,60.0,56.0,29.87,WSW,254,1.0,7.0,88,0.00,,,0.05,,2013-06-02 09:01:00,
2013-06-02 04:11:00,60.0,56.0,29.87,WSW,254,1.0,7.0,88,0.00,,,0.05,,2013-06-02 09:11:00,
2013-06-02 04:21:00,60.0,56.0,29.87,West,266,2.0,5.0,88,0.00,,,0.02,,2013-06-02 09:21:00,
2013-06-02 04:33:00,60.0,56.0,29.87,West,266,2.0,5.0,88,0.00,,,0.02,,2013-06-02 09:33:00,
2013-06-02 04:43:00,60.0,56.0,29.87,West,266,2.0,5.0,88,0.00,,,0.02,,2013-06-02 09:43:00,
2013-06-02 04:53:00,60.0,57.0,29.88,WSW,246,2.0,7.0,89,0.00,,,0.02,,2013-06-02 09:53:00,
2013-06-02 05:02:00,60.0,57.0,29.88,WSW,246,2.0,7.0,89,0.00,,,0.02,,2013-06-02 10:02:00,
2013-06-02 05:12:00,60.0,57.0,29.88,WSW,246,2.0,7.0,89,0.00,,,0.02,,2013-06-02 10:12:00,
2013-06-02 05:22:00,60.0,57.0,29.88,WSW,246,2.0,7.0,89,0.00,,,0.02,,2013-06-02 10:22:00,
2013-06-02 05:32:00,60.0,57.0,29.88,WSW,246,2.0,7.0,89,0.00,,,0.02,,2013-06-02 10:32:00,
2013-06-02 05:52:00,59.0,56.0,29.90,WSW,241,0.0,2.0,90,0.00,,,0.02,,2013-06-02 10:52:00,
2013-06-02 06:02:00,59.0,56.0,29.90,WSW,241,0.0,2.0,90,0.00,,,0.02,,2013-06-02 11:02:00,
2013-06-02 06:12:00,59.0,56.0,29.90,WSW,241,0.0,2.0,90,0.00,,,0.02,,2013-06-02 11:12:00,
2013-06-02 06:21:00,59.0,56.0,29.90,WSW,241,0.0,2.0,90,0.00,,,0.02,,2013-06-02 11:21:00,
2013-06-02 06:32:00,59.0,56.0,29.90,WSW,241,0.0,2.0,90,0.00,,,0.02,,2013-06-02 11:32:00,
2013-06-02 07:52:00,61.0,58.0,29.93,West,264,3.0,6.0,90,0.00,,,0.02,,2013-06-02 12:52:00,
2013-06-02 08:01:00,61.0,58.0,29.93,West,264,3.0,6.0,90,0.00,,,0.02,,2013-06-02 13:01:00,
2013-06-02 08:11:00,61.0,58.0,29.93,West,264,3.0,6.0,90,0.00,,,0.02,,2013-06-02 13:11:00,
2013-06-02 08:21:00,61.0,58.0,29.93,West,260,0.0,5.0,90,0.00,,,0.01,,2013-06-02 13:21:00,
2013-06-02 08:32:00,61.0,58.0,29.93,West,260,0.0,5.0,90,0.00,,,0.01,,2013-06-02 13:32:00,
2013-06-02 08:42:00,61.0,58.0,29.93,West,260,0.0,5.0,90,0.00,,,0.01,,2013-06-02 13:42:00,
2013-06-02 08:52:00,61.0,58.0,29.93,West,260,0.0,5.0,90,0.00,,,0.01,,2013-06-02 13:52:00,
2013-06-02 09:01:00,61.0,58.0,29.93,West,260,0.0,5.0,90,0.00,,,0.01,,2013-06-02 14:01:00,
2013-06-02 09:11:00,62.0,58.0,29.93,West,274,3.0,10.0,87,0.00,,,0.01,,2013-06-02 14:11:00,
2013-06-02 09:22:00,62.0,58.0,29.93,West,274,3.0,10.0,87,0.00,,,0.01,,2013-06-02 14:22:00,
2013-06-02 09:32:00,62.0,58.0,29.93,West,274,3.0,10.0,87,0.00,,,0.01,,2013-06-02 14:32:00,
2013-06-02 09:42:00,62.0,58.0,29.93,West,274,3.0,10.0,87,0.00,,,0.01,,2013-06-02 14:42:00,
2013-06-02 09:52:00,63.0,58.0,29.94,WNW,291,3.0,10.0,85,0.00,,,0.01,,2013-06-02 14:52:00,
2013-06-02 10:01:00,63.0,58.0,29.94,WNW,291,3.0,10.0,85,0.00,,,0.01,,2013-06-02 15:01:00,
2013-06-02 10:11:00,63.0,58.0,29.94,WNW,291,3.0,10.0,85,0.00,,,0.01,,2013-06-02 15:11:00,
2013-06-02 10:21:00,63.0,58.0,29.95,NW,308,4.0,10.0,84,0.00,,,0.00,,2013-06-02 15:21:00,
2013-06-02 10:32:00,63.0,58.0,29.95,NW,308,4.0,10.0,84,0.00,,,0.00,,2013-06-02 15:32:00,
2013-06-02 10:43:00,63.0,58.0,29.95,NW,308,4.0,10.0,84,0.00,,,0.00,,2013-06-02 15:43:00,
2013-06-02 10:53:00,63.0,58.0,29.95,NW,308,4.0,10.0,84,0.00,,,0.00,,2013-06-02 15:53:00,
2013-06-02 11:03:00,63.0,58.0,29.95,NW,308,4.0,10.0,84,0.00,,,0.00,,2013-06-02 16:03:00,
2013-06-02 11:23:00,64.0,58.0,29.96,WNW,298,6.0,13.0,82,0.00,,,0.00,,2013-06-02 16:23:00,
2013-06-02 11:33:00,64.0,58.0,29.96,WNW,298,6.0,13.0,82,0.00,,,0.00,,2013-06-02 16:33:00,
2013-06-02 11:42:00,64.0,58.0,29.96,WNW,298,6.0,13.0,82,0.00,,,0.00,,2013-06-02 16:42:00,
2013-06-02 11:52:00,62.0,58.0,29.97,WNW,285,6.0,13.0,86,0.00,,,0.00,,2013-06-02 16:52:00,
2013-06-02 12:02:00,62.0,58.0,29.97,WNW,285,6.0,13.0,86,0.00,,,0.00,,2013-06-02 17:02:00,
2013-06-02 12:12:00,62.0,58.0,29.97,WNW,285,6.0,13.0,86,0.00,,,0.00,,2013-06-02 17:12:00,
2013-06-02 12:22:00,62.0,58.0,29.97,WNW,285,6.0,13.0,86,0.00,,,0.00,,2013-06-02 17:22:00,
2013-06-02 12:32:00,62.0,58.0,29.97,WNW,285,6.0,13.0,86,0.00,,,0.00,,2013-06-02 17:32:00,
2013-06-02 12:42:00,64.0,58.0,29.98,WNW,292,5.0,10.0,81,0.00,,,0.00,,2013-06-02 17:42:00,
2013-06-02 12:52:00,64.0,58.0,29.98,WNW,292,5.0,10.0,81,0.00,,,0.00,,2013-06-02 17:52:00,
2013-06-02 13:02:00,64.0,58.0,29.98,WNW,292,5.0,10.0,81,0.00,,,0.00,,2013-06-02 18:02:00,
2013-06-02 13:11:00,64.0,58.0,29.98,WNW,292,5.0,10.0,81,0.00,,,0.00,,2013-06-02 18:11:00,
2013-06-02 13:21:00,64.0,58.0,29.98,WNW,292,5.0,10.0,81,0.00,,,0.00,,2013-06-02 18:21:00,
2013-06-02 13:32:00,64.0,58.0,29.98,WNW,292,5.0,10.0,81,0.00,,,0.00,,2013-06-02 18:32:00,
2013-06-02 13:42:00,66.0,59.0,29.98,West,280,3.0,11.0,77,0.00,,,0.00,,2013-06-02 18:42:00,
2013-06-02 13:52:00,66.0,59.0,29.98,West,280,3.0,11.0,77,0.00,,,0.00,,2013-06-02 18:52:00,
2013-06-02 14:01:00,66.0,59.0,29.98,West,280,3.0,11.0,77,0.00,,,0.00,,2013-06-02 19:01:00,
2013-06-02 14:11:00,66.0,59.0,29.98,West,280,3.0,11.0,77,0.00,,,0.00,,2013-06-02 19:11:00,
2013-06-02 14:21:00,66.0,59.0,29.98,West,280,3.0,11.0,77,0.00,,,0.00,,2013-06-02 19:21:00,
2013-06-02 14:32:00,66.0,59.0,29.98,West,280,3.0,11.0,77,0.00,,,0.00,,2013-06-02 19:32:00,
2013-06-02 14:52:00,62.0,57.0,30.00,WNW,293,2.0,7.0,85,0.01,,,0.01,,2013-06-02 19:52:00,
2013-06-02 15:02:00,62.0,57.0,30.00,WNW,293,2.0,7.0,85,0.01,,,0.01,,2013-06-02 20:02:00,
2013-06-02 15:11:00,62.0,57.0,30.00,WNW,293,2.0,7.0,85,0.01,,,0.01,,2013-06-02 20:11:00,
2013-06-02 15:21:00,61.0,57.0,30.01,WNW,299,4.0,12.0,86,0.03,,,0.03,,2013-06-02 20:21:00,
2013-06-02 15:32:00,61.0,57.0,30.01,WNW,299,4.0,12.0,86,0.03,,,0.03,,2013-06-02 20:32:00,
2013-06-02 15:33:00,62.0,57.0,30.00,WNW,295,2.0,10.0,85,0.02,,,0.03,,2013-06-02 20:33:00,
2013-06-02 15:42:00,61.0,57.0,30.01,WNW,299,4.0,12.0,86,0.03,,,0.03,,2013-06-02 20:42:00,
2013-06-02 15:52:00,62.0,57.0,30.00,WNW,295,2.0,10.0,85,0.02,,,0.03,,2013-06-02 20:52:00,
2013-06-02 16:01:00,62.0,57.0,30.00,WNW,295,2.0,10.0,85,0.02,,,0.03,,2013-06-02 21:01:00,
2013-06-02 16:12:00,62.0,57.0,30.00,WNW,295,2.0,10.0,85,0.02,,,0.03,,2013-06-02 21:12:00,
2013-06-02 16:21:00,62.0,57.0,30.00,WNW,295,2.0,10.0,85,0.02,,,0.03,,2013-06-02 21:21:00,
2013-06-02 17:53:00,64.0,56.0,29.99,WNW,298,5.0,11.0,76,0.00,,,0.03,,2013-06-02 22:53:00,
2013-06-02 18:02:00,64.0,56.0,29.99,WNW,298,5.0,11.0,76,0.00,,,0.03,,2013-06-02 23:02:00,
2013-06-02 18:12:00,64.0,56.0,29.99,WNW,298,5.0,11.0,76,0.00,,,0.03,,2013-06-02 23:12:00,
2013-06-02 18:22:00,64.0,56.0,29.99,WNW,298,5.0,11.0,76,0.00,,,0.03,,2013-06-02 23:22:00,
2013-06-02 18:32:00,64.0,56.0,29.99,WNW,298,5.0,11.0,76,0.00,,,0.03,,2013-06-02 23:32:00,
2013-06-02 19:42:00,61.0,56.0,30.00,WNW,297,2.0,8.0,83,0.00,,,0.03,,2013-06-03 00:42:00,
2013-06-02 19:52:00,61.0,56.0,30.00,WNW,297,2.0,8.0,83,0.00,,,0.03,,2013-06-03 00:52:00,
2013-06-02 20:01:00,61.0,56.0,30.00,WNW,297,2.0,8.0,83,0.00,,,0.03,,2013-06-03 01:01:00,
2013-06-02 20:11:00,61.0,56.0,30.00,WNW,297,2.0,8.0,83,0.00,,,0.03,,2013-06-03 01:11:00,
2013-06-02 20:21:00,61.0,56.0,30.00,WNW,297,2.0,8.0,83,0.00,,,0.03,,2013-06-03 01:21:00,
2013-06-02 20:32:00,61.0,56.0,30.00,WNW,297,2.0,8.0,83,0.00,,,0.03,,2013-06-03 01:32:00,
2013-06-02 21:22:00,60.0,55.0,30.01,NW,305,2.0,5.0,85,0.00,,,0.03,,2013-06-03 02:22:00,
2013-06-02 21:32:00,60.0,55.0,30.01,NW,305,2.0,5.0,85,0.00,,,0.03,,2013-06-03 02:32:00,
2013-06-02 21:42:00,60.0,55.0,30.01,NW,305,2.0,5.0,85,0.00,,,0.03,,2013-06-03 02:42:00,
2013-06-02 21:52:00,60.0,55.0,30.01,NW,305,2.0,5.0,85,0.00,,,0.03,,2013-06-03 02:52:00,
2013-06-02 22:02:00,60.0,55.0,30.01,NW,305,2.0,5.0,85,0.00,,,0.03,,2013-06-03 03:02:00,
2013-06-02 22:12:00,59.0,54.0,30.03,WNW,289,2.0,6.0,85,0.00,,,0.03,,2013-06-03 03:12:00,
2013-06-02 22:22:00,59.0,54.0,30.03,WNW,289,2.0,6.0,85,0.00,,,0.03,,2013-06-03 03:22:00,
2013-06-02 22:33:00,59.0,54.0,30.03,WNW,289,2.0,6.0,85,0.00,,,0.03,,2013-06-03 03:33:00,
2013-06-02 22:43:00,59.0,54.0,30.03,WNW,289,2.0,6.0,85,0.00,,,0.03,,2013-06-03 03:43:00,
2013-06-02 22:53:00,59.0,54.0,30.03,WNW,289,2.0,6.0,85,0.00,,,0.03,,2013-06-03 03:53:00,
2013-06-02 23:03:00,59.0,54.0,30.03,WNW,289,2.0,6.0,85,0.00,,,0.03,,2013-06-03 04:03:00,
2013-06-02 23:23:00,59.0,54.0,30.03,NNW,339,2.0,5.0,84,0.00,,,0.03,,2013-06-03 04:23:00,
2013-06-02 23:33:00,59.0,54.0,30.03,NNW,339,2.0,5.0,84,0.00,,,0.03,,2013-06-03 04:33:00,
2013-06-02 23:42:00,59.0,54.0,30.03,NNW,339,2.0,5.0,84,0.00,,,0.03,,2013-06-03 04:42:00,
2013-06-02 23:53:00,59.0,54.0,30.03,NNW,339,2.0,5.0,84,0.00,,,0.03,,2013-06-03 04:53:00,